Radiation Dose at Monitoring Post of Fukushima Daini Nuclear Power Station
Date,Time,MP-1(microSv/h),MP-2(microSv/h),MP-3(microSv/h),MP-4(microSv/h),MP-5(microSv/h),MP-6(microSv/h),MP-7(microSv/h),Wind Direction,Wind Velocity(m/s),Rain
2018/11/30,00:00,0.264,0.192,0.308,0.297,0.280,0.156,0.095,west-southwest,3.4,No
2018/11/30,00:10,0.263,0.194,0.308,0.296,0.281,0.156,0.096,west-southwest,4.7,No
2018/11/30,00:20,0.264,0.193,0.308,0.296,0.280,0.157,0.096,west,3.3,No
2018/11/30,00:30,0.265,0.192,0.309,0.297,0.280,0.157,0.096,northwest,2.6,No
2018/11/30,00:40,0.264,0.193,0.309,0.297,0.281,0.156,0.096,north-northwest,2.6,Yes
2018/11/30,00:50,0.263,0.193,0.307,0.296,0.279,0.157,0.096,northeast,1.3,Yes
2018/11/30,01:00,0.264,0.193,0.308,0.297,0.281,0.156,0.095,northwest,1.3,No
2018/11/30,01:10,0.264,0.193,0.309,0.297,0.280,0.156,0.096,west-southwest,3.2,No
2018/11/30,01:20,0.265,0.192,0.309,0.295,0.280,0.156,0.096,west-northwest,4.8,No
2018/11/30,01:30,0.263,0.192,0.307,0.297,0.279,0.156,0.095,northwest,5.0,No
2018/11/30,01:40,0.264,0.191,0.308,0.297,0.280,0.157,0.096,west-northwest,8.2,No
2018/11/30,01:50,0.264,0.192,0.307,0.296,0.280,0.156,0.096,northwest,7.3,No
2018/11/30,02:00,0.264,0.192,0.308,0.297,0.279,0.156,0.095,north-northwest,4.9,No
2018/11/30,02:10,0.266,0.192,0.307,0.295,0.280,0.155,0.096,north,4.5,No
2018/11/30,02:20,0.263,0.192,0.308,0.297,0.281,0.157,0.096,north-northwest,3.8,No
2018/11/30,02:30,0.264,0.192,0.308,0.296,0.281,0.157,0.094,north-northwest,5.4,No
2018/11/30,02:40,0.263,0.191,0.307,0.296,0.281,0.155,0.095,north-northwest,6.0,Yes
2018/11/30,02:50,0.264,0.191,0.308,0.296,0.281,0.156,0.095,northwest,8.1,Yes
2018/11/30,03:00,0.264,0.193,0.309,0.297,0.279,0.156,0.095,northwest,7.2,Yes
2018/11/30,03:10,0.263,0.193,0.308,0.296,0.282,0.156,0.095,northwest,4.8,No
2018/11/30,03:20,0.265,0.192,0.309,0.296,0.281,0.157,0.095,north-northwest,5.3,No
2018/11/30,03:30,0.264,0.194,0.309,0.297,0.281,0.157,0.095,north-northwest,4.8,No
2018/11/30,03:40,0.264,0.193,0.309,0.297,0.282,0.156,0.096,north-northwest,5.3,No
2018/11/30,03:50,0.264,0.193,0.308,0.297,0.281,0.156,0.095,north-northwest,4.4,No
2018/11/30,04:00,0.264,0.193,0.309,0.298,0.280,0.157,0.095,north-northwest,4.5,No
2018/11/30,04:10,0.263,0.193,0.309,0.297,0.281,0.156,0.095,north,5.4,No
2018/11/30,04:20,0.264,0.192,0.308,0.297,0.282,0.157,0.096,north,4.9,No
2018/11/30,04:30,0.263,0.192,0.308,0.296,0.280,0.155,0.096,north,4.7,No
2018/11/30,04:40,0.265,0.193,0.308,0.296,0.281,0.156,0.095,north-northwest,4.3,No
2018/11/30,04:50,0.264,0.193,0.309,0.297,0.281,0.156,0.095,north-northwest,5.1,No
2018/11/30,05:00,0.266,0.193,0.308,0.296,0.282,0.157,0.095,north-northwest,3.6,No
2018/11/30,05:10,0.265,0.193,0.308,0.297,0.281,0.156,0.095,northwest,3.9,No
2018/11/30,05:20,0.264,0.193,0.309,0.297,0.279,0.156,0.095,west-northwest,3.5,No
2018/11/30,05:30,0.264,0.193,0.308,0.298,0.280,0.157,0.094,northwest,4.8,No
2018/11/30,05:40,0.264,0.192,0.307,0.297,0.280,0.156,0.096,northwest,4.8,No
2018/11/30,05:50,0.265,0.193,0.308,0.297,0.279,0.155,0.096,northwest,5.0,No
2018/11/30,06:00,0.264,0.193,0.309,0.296,0.278,0.156,0.096,west-northwest,6.1,No
2018/11/30,06:10,0.265,0.193,0.308,0.298,0.280,0.156,0.095,west-northwest,5.5,No
2018/11/30,06:20,0.265,0.193,0.309,0.296,0.282,0.156,0.096,west-northwest,5.3,No
2018/11/30,06:30,0.264,0.192,0.308,0.298,0.280,0.156,0.095,northwest,4.9,No
2018/11/30,06:40,0.264,0.192,0.309,0.296,0.279,0.156,0.095,west-northwest,5.3,No
2018/11/30,06:50,0.265,0.192,0.309,0.296,0.280,0.155,0.095,west-northwest,4.1,No
2018/11/30,07:00,0.264,0.191,0.308,0.297,0.280,0.156,0.096,west-northwest,2.8,No
2018/11/30,07:10,0.265,0.193,0.309,0.297,0.280,0.156,0.095,west-northwest,3.4,No
2018/11/30,07:20,0.264,0.192,0.309,0.296,0.279,0.156,0.095,west-northwest,2.9,No
2018/11/30,07:30,0.265,0.192,0.308,0.295,0.280,0.156,0.095,northwest,1.3,No
2018/11/30,07:40,0.263,0.193,0.308,0.296,0.280,0.156,0.095,northwest,0.6,No
2018/11/30,07:50,0.264,0.192,0.307,0.295,0.279,0.157,0.096,north-northwest,0.9,No
2018/11/30,08:00,0.264,0.192,0.309,0.296,0.280,0.156,0.095,west-southwest,1.0,No
2018/11/30,08:10,0.263,0.194,0.309,0.297,0.280,0.156,0.095,west-southwest,1.1,No
2018/11/30,08:20,0.263,0.192,0.308,0.297,0.279,0.156,0.095,west-southwest,0.8,No
2018/11/30,08:30,0.264,0.193,0.308,0.295,0.281,0.156,0.095,west-southwest,2.3,No
2018/11/30,08:40,0.264,0.193,0.308,0.296,0.280,0.156,0.095,west,3.3,No
2018/11/30,08:50,0.263,0.193,0.308,0.295,0.280,0.156,0.096,west,2.5,No
2018/11/30,09:00,0.264,0.192,0.306,0.295,0.281,0.156,0.095,west,1.1,No
2018/11/30,09:10,0.264,0.192,0.308,0.296,0.279,0.157,0.095,west-southwest,2.2,No
2018/11/30,09:20,0.263,0.191,0.309,0.296,0.281,0.156,0.095,west-southwest,2.6,No
2018/11/30,09:30,0.265,0.191,0.307,0.295,0.280,0.155,0.096,west,1.1,No
2018/11/30,09:40,0.264,0.192,0.308,0.294,0.280,0.156,0.096,west-northwest,1.6,No
2018/11/30,09:50,0.265,0.191,0.308,0.293,0.279,0.157,0.095,northwest,2.5,No
2018/11/30,10:00,0.268,0.192,0.307,0.294,0.280,0.155,0.095,north-northwest,3.1,No
2018/11/30,10:10,0.263,0.192,0.308,0.295,0.279,0.156,0.094,north-northwest,4.3,No
2018/11/30,10:20,0.258,0.192,0.308,0.295,0.281,0.157,0.095,north-northwest,3.9,No
2018/11/30,10:30,0.260,0.193,0.306,0.297,0.280,0.157,0.096,north-northwest,3.7,No
2018/11/30,10:40,0.262,0.193,0.309,0.297,0.280,0.155,0.095,north-northwest,4.2,No
2018/11/30,10:50,0.261,0.193,0.307,0.297,0.283,0.156,0.096,north-northwest,3.1,No
2018/11/30,11:00,0.260,0.192,0.308,0.298,0.280,0.158,0.095,north-northwest,3.2,No
2018/11/30,11:10,0.258,0.192,0.310,0.296,0.282,0.157,0.096,north,2.5,No
2018/11/30,11:20,0.262,0.191,0.309,0.297,0.279,0.157,0.096,north,2.6,No
2018/11/30,11:30,0.261,0.192,0.308,0.294,0.281,0.156,0.095,north-northeast,3.7,No
2018/11/30,11:40,0.263,0.191,0.308,0.296,0.280,0.156,0.095,north,4.3,No
2018/11/30,11:50,0.261,0.192,0.307,0.296,0.281,0.157,0.095,north-northeast,4.0,No
2018/11/30,12:00,0.263,0.192,0.308,0.298,0.280,0.156,0.096,northeast,3.9,No
2018/11/30,12:10,0.264,0.191,0.308,0.297,0.282,0.157,0.096,north-northeast,4.0,No
2018/11/30,12:20,0.264,0.192,0.309,0.297,0.281,0.157,0.096,northeast,3.7,No
2018/11/30,12:30,0.265,0.192,0.308,0.298,0.281,0.157,0.095,northeast,4.2,No
2018/11/30,12:40,0.265,0.193,0.309,0.296,0.282,0.157,0.095,northeast,4.4,No
2018/11/30,12:50,0.264,0.192,0.309,0.296,0.281,0.156,0.095,north-northeast,5.2,No
2018/11/30,13:00,0.264,0.193,0.307,0.296,0.281,0.156,0.095,northeast,4.5,No
2018/11/30,13:10,0.263,0.192,0.309,0.298,0.279,0.157,0.096,north-northeast,4.2,No
2018/11/30,13:20,0.265,0.193,0.309,0.295,0.283,0.157,0.096,northeast,2.7,No
2018/11/30,13:30,0.264,0.193,0.307,0.298,0.280,0.156,0.095,north-northwest,1.4,No
2018/11/30,13:40,0.264,0.192,0.309,0.296,0.283,0.156,0.096,north-northwest,3.4,No
2018/11/30,13:50,0.259,0.193,0.306,0.297,0.279,0.158,0.095,north-northwest,2.7,No
2018/11/30,14:00,0.258,0.193,0.310,0.295,0.281,0.156,0.095,north-northeast,3.8,No
2018/11/30,14:10,0.260,0.193,0.308,0.297,0.282,0.157,0.095,north-northeast,4.3,No
2018/11/30,14:20,0.259,0.194,0.309,0.298,0.280,0.157,0.095,north,5.1,No
2018/11/30,14:30,0.261,0.192,0.310,0.298,0.284,0.156,0.096,north-northeast,4.6,No
2018/11/30,14:40,0.260,0.193,0.308,0.298,0.281,0.157,0.096,north,3.7,No
2018/11/30,14:50,0.262,0.193,0.308,0.298,0.282,0.156,0.095,north,4.7,No
2018/11/30,15:00,0.262,0.193,0.309,0.296,0.281,0.156,0.096,north-northeast,5.9,No
2018/11/30,15:10,0.262,0.193,0.309,0.299,0.282,0.157,0.096,north,6.4,No
2018/11/30,15:20,0.262,0.194,0.309,0.298,0.282,0.157,0.095,north-northeast,6.1,No
2018/11/30,15:30,0.262,0.192,0.310,0.297,0.284,0.157,0.096,north,5.8,No
2018/11/30,15:40,0.262,0.193,0.308,0.299,0.282,0.157,0.095,north,5.2,No
2018/11/30,15:50,0.262,0.194,0.308,0.297,0.282,0.157,0.096,north,6.0,No
2018/11/30,16:00,0.261,0.192,0.309,0.297,0.283,0.156,0.095,north,5.7,No
2018/11/30,16:10,0.264,0.193,0.309,0.299,0.281,0.157,0.096,north-northwest,4.9,No
2018/11/30,16:20,0.263,0.193,0.308,0.298,0.282,0.158,0.095,north-northwest,3.9,No
2018/11/30,16:30,0.262,0.192,0.310,0.297,0.281,0.157,0.095,northwest,5.7,No
2018/11/30,16:40,0.263,0.193,0.309,0.297,0.280,0.155,0.097,northwest,6.3,No
2018/11/30,16:50,0.263,0.193,0.309,0.298,0.281,0.157,0.096,northwest,8.5,No
2018/11/30,17:00,0.264,0.193,0.309,0.298,0.282,0.158,0.096,northwest,8.9,No
2018/11/30,17:10,0.262,0.193,0.310,0.298,0.280,0.157,0.095,northwest,10.6,No
2018/11/30,17:20,0.263,0.193,0.311,0.297,0.281,0.157,0.096,northwest,10.6,No
2018/11/30,17:30,0.262,0.193,0.309,0.298,0.281,0.156,0.096,northwest,12.0,No
2018/11/30,17:40,0.264,0.192,0.309,0.297,0.281,0.158,0.095,northwest,11.1,No
2018/11/30,17:50,0.264,0.192,0.309,0.297,0.281,0.157,0.095,northwest,10.0,No
2018/11/30,18:00,0.263,0.192,0.309,0.298,0.280,0.157,0.096,northwest,6.3,No
2018/11/30,18:10,0.263,0.194,0.310,0.297,0.282,0.157,0.096,northwest,1.7,No
2018/11/30,18:20,0.262,0.193,0.311,0.296,0.282,0.157,0.096,north-northwest,0.8,No
2018/11/30,18:30,0.263,0.192,0.310,0.298,0.280,0.157,0.095,east-northeast,1.0,No
2018/11/30,18:40,0.261,0.193,0.309,0.298,0.282,0.157,0.096,north,1.1,No
2018/11/30,18:50,0.263,0.193,0.309,0.299,0.281,0.156,0.096,northwest,4.2,No
2018/11/30,19:00,0.262,0.193,0.310,0.297,0.281,0.157,0.096,northwest,4.7,No
2018/11/30,19:10,0.262,0.192,0.308,0.297,0.281,0.156,0.095,north-northwest,2.8,No
2018/11/30,19:20,0.262,0.194,0.310,0.298,0.281,0.157,0.096,northwest,4.1,No
2018/11/30,19:30,0.263,0.193,0.309,0.298,0.280,0.157,0.096,northwest,5.3,No
2018/11/30,19:40,0.263,0.193,0.309,0.298,0.279,0.157,0.096,west-northwest,3.5,No
2018/11/30,19:50,0.262,0.193,0.308,0.299,0.281,0.157,0.096,northwest,3.1,No
2018/11/30,20:00,0.261,0.191,0.310,0.298,0.282,0.157,0.095,northwest,2.8,No
2018/11/30,20:10,0.262,0.193,0.310,0.297,0.281,0.157,0.096,northwest,1.7,No
2018/11/30,20:20,0.262,0.193,0.309,0.298,0.281,0.156,0.095,north-northwest,1.0,Yes
2018/11/30,20:30,0.262,0.192,0.310,0.298,0.281,0.157,0.095,north,1.3,Yes
2018/11/30,20:40,0.263,0.192,0.311,0.298,0.281,0.158,0.096,north,1.4,No
2018/11/30,20:50,0.263,0.193,0.310,0.298,0.283,0.157,0.096,north-northeast,1.3,No
2018/11/30,21:00,0.263,0.192,0.309,0.298,0.281,0.157,0.095,north-northeast,1.1,Yes
2018/11/30,21:10,0.262,0.191,0.310,0.298,0.280,0.157,0.096,north,0.8,No
2018/11/30,21:20,0.263,0.193,0.309,0.298,0.283,0.157,0.096,north-northeast,1.5,Yes
2018/11/30,21:30,0.262,0.192,0.309,0.298,0.283,0.158,0.097,north,1.7,No
2018/11/30,21:40,0.261,0.192,0.311,0.297,0.281,0.157,0.095,north,1.9,Yes
2018/11/30,21:50,0.262,0.192,0.310,0.298,0.282,0.158,0.095,north-northwest,2.5,No
2018/11/30,22:00,0.263,0.194,0.309,0.296,0.280,0.157,0.096,north-northwest,2.2,Yes
2018/11/30,22:10,0.262,0.193,0.308,0.297,0.281,0.157,0.096,north,1.7,No
2018/11/30,22:20,0.263,0.193,0.311,0.299,0.283,0.157,0.095,north-northwest,2.5,No
2018/11/30,22:30,0.263,0.193,0.310,0.297,0.282,0.157,0.095,north-northwest,1.9,No
2018/11/30,22:40,0.263,0.193,0.309,0.298,0.279,0.157,0.096,north-northeast,0.8,No
2018/11/30,22:50,0.263,0.192,0.309,0.299,0.280,0.157,0.096,northeast,1.7,No
2018/11/30,23:00,0.262,0.191,0.309,0.298,0.282,0.157,0.096,north-northeast,2.5,No
2018/11/30,23:10,0.263,0.193,0.310,0.298,0.281,0.157,0.097,northwest,2.7,No
2018/11/30,23:20,0.263,0.192,0.311,0.298,0.280,0.157,0.096,north-northwest,2.5,No
2018/11/30,23:30,0.262,0.193,0.310,0.298,0.281,0.157,0.096,north,1.6,No
2018/11/30,23:40,0.263,0.193,0.309,0.298,0.280,0.157,0.096,north-northwest,1.7,No
2018/11/30,23:50,0.263,0.193,0.310,0.299,0.281,0.157,0.096,north,1.4,No
